Regional Weather Roundup
Issued by NWS

Home | Current Version | Previous Version | Graphics & Text | Print | Product List | Glossary Off
Versions: 1 2 3 4 5 6 7 8 9 10 11 12 13 14 15 16 17 18 19 20 21 22 23 24 25 26 27 28 29 30 31 32 33 34 35 36 37 38 39 40 41 42 43 44 45 46 47 48 49 50

000
ASUS43 KMKX 180400
RWRWI

WISCONSIN REGIONAL WEATHER ROUNDUP
NATIONAL WEATHER SERVICE MILWAUKEE/SULLIVAN WI
1000 PM CST WED DEC 17 2014

NOTE: "FAIR" INDICATES FEW OR NO CLOUDS BELOW 12,000 FEET WITH NO
SIGNIFICANT WEATHER AND/OR OBSTRUCTIONS TO VISIBILITY.

WIZ001-002-006>008-014>016-023>028-180500-
NORTHWEST WISCONSIN

CITY           SKY/WX    TMP DP  RH WIND       PRES   REMARKS
SUPERIOR ARPT  CLOUDY    18  16  90 SW5       30.32R WCI  11
ASHLAND        CLOUDY    21  18  88 CALM      30.30S
HAYWARD        CLOUDY    18  13  80 CALM      30.27S
SIREN          CLOUDY    15  12  90 SW3       30.31R
CUMBERLAND     CLOUDY    18  12  79 CALM      30.28R
RICE LAKE      CLOUDY    18  13  79 NW3       30.30R
CHETEK         CLOUDY    19  13  79 CALM      30.29S
LADYSMITH      CLOUDY    20  17  86 N5        30.26F WCI  14
EAU CLAIRE     CLOUDY    18  11  74 W6        30.30R WCI  10
MENOMONIE      CLOUDY    18  13  79 SW6       30.32R WCI  10
NEW RICHMOND   CLOUDY    13  11  93 CALM      30.32R
OSCEOLA        MOCLDY    11  11  96 CALM      30.36R
$$

WIZ003>005-009-010-017-018-180500-
NORTH CENTRAL WISCONSIN

CITY           SKY/WX    TMP DP  RH WIND       PRES   REMARKS
MANITOWISH WTR CLOUDY    20  18  91 N9        30.22R WCI   9
ARBOR VITAE    CLOUDY    22  19  87 NE7       30.21S WCI  13
WOODRUFF       CLOUDY    22  19  87 NE7       30.21S WCI  13
RHINELANDER    CLOUDY    20  17  88 VRB6      30.20S WCI  12
EAGLE RIVER    CLOUDY    21  20  98 N8        30.20S WCI  11
LAND O LAKES   CLOUDY    22  20  95 N10       30.21R WCI  11
PHILLIPS       CLOUDY    21  18  86 N10       30.21F WCI  10
TOMAHAWK       CLOUDY    22  18  86 CALM      30.21S
MEDFORD        CLOUDY    20  17  88 N7        30.21R WCI  11
MERRILL        CLOUDY    23  20  88 N8        30.21S WCI  13
$$

WIZ029-030-035-036-043>047-180500-
CENTRAL WISCONSIN

CITY           SKY/WX    TMP DP  RH WIND       PRES   REMARKS
WAUSAU         CLOUDY    23  19  85 VRB5      30.20S WCI  17
MOSINEE        CLOUDY    23  19  86 N6        30.22S WCI  16
MARSHFIELD     CLOUDY    20  14  77 W8        30.23S WCI  10
STEVENS POINT  CLOUDY    20  15  79 W5        30.23S WCI  14
WAUPACA        CLOUDY    24  16  72 W3        30.24R
WAUTOMA        NOT AVBL
WISC RAPIDS    CLOUDY    19  12  74 W9        30.27R WCI   8
CAMP DOUGLAS   NOT AVBL
$$

WIZ011>013-019>022-031-037>040-048>050-180500-
NORTHEAST WISCONSIN

CITY           SKY/WX    TMP DP  RH WIND       PRES   REMARKS
ANTIGO         CLOUDY    22  19  91 N14       30.19R WCI   9
SHAWANO        CLOUDY    27  20  76 NW3       30.23R
OCONTO         CLOUDY    27  22  82 N7        30.21S WCI  19
STURGEON BAY   CLOUDY    27  21  80 NW13      30.20S WCI  16
GREEN BAY      CLOUDY    27  20  75 NW7       30.22R WCI  19
MANITOWOC      NOT AVBL
APPLETON       CLOUDY    23  16  74 W10       30.22S WCI  12
CLINTONVILLE   CLOUDY    27  19  74 N5        30.23R WCI  21
OSHKOSH        CLOUDY    22  15  75 W10       30.23S WCI  11
$$

WIZ032>034-041-042-053>061-180500-
SOUTHWEST WISCONSIN

CITY           SKY/WX    TMP DP  RH WIND       PRES   REMARKS
LA CROSSE      CLOUDY    19  12  74 NW6       30.32S WCI  11
SPARTA         CLOUDY    19  13  78 CALM      30.32R
VIROQUA        MOCLDY    17  13  86 N5        30.26F WCI   9
BOSCOBEL       MOCLDY    20  13  74 N8        30.28F WCI  10
PRAIRIE DU CHI PTCLDY    19  13  80 CALM      30.28F
PLATTEVILLE    CLEAR     18  15  87 CALM      30.26S
$$

WIZ056-057-062-063-064-067-068-180500-
SOUTH CENTRAL WISCONSIN

CITY           SKY/WX    TMP DP  RH WIND       PRES   REMARKS
REEDSBURG      PTCLDY    17  12  82 W5        30.29R WCI  10
BARABOO/DELLS  MOCLDY    17  13  84 W3        30.28R
LONE ROCK      PTCLDY    23  13  65 N7        30.29F WCI  15
MINERAL POINT  FLURRIES  19  16  86 N8        30.22F WCI   9
MADISON        PTCLDY    18  13  80 NW5       30.26F WCI  11
MIDDLETON      PTCLDY    21  15  78 N7        30.27S WCI  12
WATERTOWN      CLEAR     19  15  85 W5        30.27R WCI  12
MONROE         CLOUDY    21  18  86 N7        30.24F WCI  13
JANESVILLE     CLOUDY    27  18  69 N6        30.26F WCI  20
$$

WIZ051-052-058>065-066-070>072-180500-
SOUTHEAST WISCONSIN

CITY           SKY/WX    TMP DP  RH WIND       PRES   REMARKS
MILWAUKEE      CLEAR     22  13  68 NW8       30.25S WCI  12
WAUKESHA       CLEAR     19  14  79 W9        30.26S WCI   9
MILWAUKEE/TIMM CLOUDY    21  14  73 W10       30.26S WCI  10
RACINE         PTCLDY    21  14  74 W10       30.27S WCI  10
BURLINGTON     CLEAR     18  13  81 W3        30.26F
KENOSHA        CLEAR     20  14  77 W7        30.27R WCI  11
FOND DU LAC    CLOUDY    22  14  71 VRB3      30.25R
SHEBOYGAN      CLOUDY    22  15  75 W9        30.23R WCI  12
WEST BEND      PTCLDY    21  14  73 W7        30.23S WCI  13
JUNEAU         CLOUDY    19  14  82 W5        30.27R WCI  12
$$

LSZ147-162-180500-
LAKE SUPERIOR

STATION/POSITION TIME  TEMP    WIND        PRES    WAVE
                       AIR SEA DIR/SP/G            HT/PER
                 (UTC) (F)     (DEG/KT/KT) (MB)    (FT/S)
DEVILS ISLAND    0300   25      40/ 13/ 14 1027.6F
PORT WING        0340   20     140/  2/  4 1026.4S
SAXON HARBOR     0300   27      30/ 11/ 15 1025.7F
$$

LMZ867-665-643>646-180500-
LAKE MICHIGAN

STATION/POSITION TIME  TEMP    WIND        PRES    WAVE
                       AIR SEA DIR/SP/G            HT/PER
                 (UTC) (F)     (DEG/KT/KT) (MB)    (FT/S)
CHAMBERS ISLAND  0340   28     310/ 13/ 15 1022.4S
NORTHPORT PIER   0300   30     350/ 16/ 20 1021.7F
SISTER BAY       0343          360/ 19/ 24   N/A
ALGOMA LAKESHORE 0314          340/ 12/ 15   N/A
KEWAUNEE LAKESHO 0300   27     320/  5/ 11 1021.4F
SHEBOYGAN LAKESH 0300   23 34  280/ 11/ 12 1024.7R
PORT WASHINGTON  0300   22     290/  5/ 10 1024.7
MILWAUKEE LAKESH 0300   23     290/ 11/ 16   N/A
KENOSHA   LAKESH 0300   23     280/  6/ 10 1024.7S
$$

TC  - TEMPERATURE IN CELSIUS
VSB - VISIBILITY IN STATUTE MILES
WCI - WIND CHILL INDEX
HX  - HEAT INDEX




USA.gov is the U.S. government's official web portal to all federal, state and local government web resources and services.